Flag for U.S.A. Weather past 2 weeks in Worcester, Massachusetts, U.S.A.

Now
46 °F

Mostly cloudy.


Feels Like: 39 °F
Forecast: 45 / 54 °F
Wind: 18 mph from Northwest

Location: Worcester Regional Airport

Current Time: Oct 24, 2014 at 1:05:07 PM

Latest Report: Oct 24, 2014 at 12:01 PM


Visibility: 10 mi

Pressure: 29.72 "Hg

Humidity: 83%

Dew point: 41 °F

Location of WorcesterLocation

Historic Weather in Worcester — Graph

°F

Worcester temperature yesterday

Maximum temperature yesterday: 50 °F (at 2:54 PM)
Minimum temperature yesterday: 45 °F (at 12:54 AM)
Average temperature yesterday: 47 °F

Past Weeks' High & Low Weather Summary

 TemperatureHumidityPressure
High73 °F (Oct 15, 1:54 PM)100% (Oct 14, 3:54 AM)30.36 "Hg (Oct 14, 3:54 AM)
Low29 °F (Oct 20, 6:54 AM)41% (Oct 9, 12:54 PM)29.52 "Hg (Oct 18, 2:54 PM)
Average53 °F81%29.96 "Hg
* Reported Oct 9 12:54 PM — Oct 24 12:01 PM, Worcester, Weather by CustomWeather, © 2014

Note: Actual official high and low records may vary slightly from our data, if they occured in-between our weather recording intervals... More about our weather records

Advertising

Worcester weather history for previous 24 hours

 ConditionsComfort  
Time TempWeatherWind HumidityBarometerVisibility
12:01 PM
Oct 24
46 °FMostly cloudy.18 mph83%29.72 "Hg10 mi
10:54 AM46 °FMostly cloudy.14 mph89%29.74 "Hg10 mi
9:54 AM45 °FMostly cloudy.15 mph90%29.73 "Hg10 mi
8:54 AM44 °FCloudy.15 mph93%29.73 "Hg10 mi
7:54 AM45 °FLight rain. Mostly cloudy.14 mph93%29.72 "Hg10 mi
6:54 AM46 °FLight rain. Low clouds.14 mph93%29.72 "Hg10 mi
5:54 AM46 °FLight rain. Low clouds.10 mph93%29.71 "Hg10 mi
4:54 AM46 °FLight rain. Mostly cloudy.12 mph96%29.70 "Hg10 mi
4:00 AM47 °FMostly cloudy.9 mph93%29.68 "Hg10 mi
2:54 AM48 °FLight rain. Fog.10 mph93%29.70 "Hg5 mi
1:54 AM48 °FLight rain. Mostly cloudy.10 mph93%29.70 "Hg7 mi
12:54 AM48 °FLight rain. Fog.16 mph93%29.70 "Hg5 mi
11:54 PM
Oct 23
48 °FLight rain. Fog.18 mph93%29.69 "Hg3 mi
10:54 PM48 °FLight rain. Fog.15 mph93%29.70 "Hg4 mi
9:54 PM48 °FLight rain. Fog.17 mph93%29.70 "Hg5 mi
8:54 PM48 °FLight rain. Fog.15 mph93%29.70 "Hg3 mi
7:54 PM48 °FLight rain. Fog.17 mph96%29.70 "Hg2 mi
6:54 PM48 °FLight rain. Fog.20 mph96%29.69 "Hg2 mi
5:54 PM49 °FLight rain. Fog.13 mph93%29.66 "Hg1 mi
4:54 PM49 °FLight rain. Fog.17 mph93%29.65 "Hg1 mi
3:54 PM49 °FLight rain. Fog.16 mph97%29.65 "Hg1 mi
2:54 PM50 °FLight rain. Fog.17 mph93%29.64 "Hg1 mi
1:54 PM49 °FLight rain. Fog.20 mph97%29.65 "Hg1 mi
Weather by CustomWeather, © 2014

See weather overviewHow to use our weather pages